Overview Statistics Trail Chart Weather Telemetry Raw packets
 

This is the latest recevied weather packets stored in our database for station/object TA2LKM-11. If no packets are shown the sender has not sent any weather packets the latest 10 day(s).

<< 27 28 29 30 31 32 33 >>
Time Temp. Humidity Pressure Rain* Wind** Luminosity Snow
1788347381 34.44° C 28% 1014.4 hPa - - - -
1788347345 33.89° C 28% 1014.4 hPa - - - -
1788347326 34.44° C 29% 1014.3 hPa - - - -
1788347289 34.44° C 29% 1014.4 hPa - - - -
1788347271 33.89° C 29% 1014.4 hPa - - - -
1788347234 33.89° C 28% 1014.4 hPa - - - -
1788347198 33.89° C 28% 1014.5 hPa - - - -
1788347161 34.44° C 28% 1014.4 hPa - - - -
1788347142 33.89° C 29% 1014.5 hPa - - - -
1788347124 34.44° C 29% 1014.5 hPa - - - -
1788347087 34.44° C 29% 1014.4 hPa - - - -
1788347050 34.44° C 30% 1014.4 hPa - - - -
1788347032 34.44° C 30% 1014.5 hPa - - - -
1788346995 34.44° C 30% 1014.5 hPa - - - -
1788346976 34.44° C 29% 1014.5 hPa - - - -
1788346939 34.44° C 29% 1014.5 hPa - - - -
1788346921 34.44° C 29% 1014.6 hPa - - - -
1788346884 33.89° C 29% 1014.6 hPa - - - -
1788345971 33.33° C 34% 1014.8 hPa - - - -
1788345069 33.89° C 37% 1015.1 hPa - - - -
1788344981 33.89° C 36% 1015.2 hPa - - - -
1788344080 33.89° C 34% 1015.4 hPa - - - -
1788343180 33.33° C 30% 1015.5 hPa - - - -
1788342279 33.89° C 36% 1015.7 hPa - - - -
1788341378 33.33° C 37% 1015.7 hPa - - - -

* Rain since midnight (hover to see other rain measurements)
** Current wind speed in m/s (hover to see current wind gust speed)